Cocoa Beach, FL

3:01 AM EST on November 23, 2017 (GMT -0500)
Cape Canaveral Air Station Skid Strip

Weather History for KXMR - July, 2013

Change the Weather History Date:

Tuesday, July 16, 2013

  Actual Average (KCOF) Record (KCOF)
Temperature  
Mean Temperature 80 °F -  
Max Temperature 86 °F 85 °F 93 °F (2000)
Min Temperature 73 °F 74 °F 73 °F (2008)
Cooling Degree Days 14    
Growing Degree Days 30 (Base 50)    
Moisture  
Dew Point 74 °F    
Average Humidity 89    
Maximum Humidity 100    
Minimum Humidity 68    
Precipitation  
Precipitation 0.06 in - - ()
Sea Level Pressure  
Sea Level Pressure 30.15 in    
Wind  
Wind Speed 6 mph (East)    
Max Wind Speed 14 mph    
Max Gust Speed 25 mph    
Visibility 9 miles    
Events Rain , Thunderstorm    
Averages and records for this station are not official NWS values.
T = Trace of Precipitation, MM = Missing Value Source: NWS Daily Summary

Daily Weather History Graph

Daily Weather History Graph

Search for Another Location

Airport or City:

Trip Planner

Search our weather history database for the weather conditions in past years. The results will help you decide how hot, cold, wet, or windy it might be!

Date:

Astronomy

Jul. 16, 2013 Rise Set
Actual Time 6:35 AM EDT 8:21 PM EDT
Civil Twilight 6:09 AM EDT 8:47 PM EDT
Nautical Twilight 5:37 AM EDT 9:18 PM EDT
Astronomical Twilight 5:04 AM EDT 9:52 PM EDT
Moon 2:12 PM EDT (7/16) 12:49 AM EDT (7/16)
Length of Visible Light 14h 38m
Length of Day
13h 45m
First Quarter, 56% of the Moon is Illuminated
Jul 16
First Quarter
Jul 22
Full
Jul 29
Last Quarter
Aug 6
New
Aug 14
First Quarter

Hourly Weather History & Observations

Time (EDT) Temp. Heat Index Dew Point Humidity Pressure Visibility Wind Dir Wind Speed Gust Speed Precip Events Conditions
12:58 AM 75.4 °F - 74.1 °F 96% 30.14 in 10.0 mi ENE 4.6 mph - N/A   Clear
1:58 AM 75.4 °F - 74.5 °F 97% 30.13 in 10.0 mi ESE 3.5 mph - N/A   Clear
2:08 AM 75.2 °F - 75.2 °F 100% 30.12 in 10.0 mi SE 8.1 mph - N/A   Light Drizzle
2:22 AM 75.2 °F - 73.4 °F 94% 30.12 in 10.0 mi ESE 5.8 mph - N/A   Clear
2:58 AM 74.3 °F - 72.5 °F 94% 30.11 in 10.0 mi East 4.6 mph - 0.00 in   Clear
3:58 AM 74.8 °F - 73.0 °F 94% 30.11 in 10.0 mi ESE 4.6 mph - N/A   Clear
4:58 AM 74.7 °F - 73.4 °F 96% 30.13 in 10.0 mi East 4.6 mph - N/A   Clear
5:58 AM 74.3 °F - 73.8 °F 98% 30.13 in 10.0 mi ENE 4.6 mph - N/A   Clear
6:58 AM 75.6 °F - 73.6 °F 94% 30.14 in 10.0 mi East 5.8 mph - N/A   Clear
7:58 AM 78.6 °F - 74.5 °F 87% 30.15 in 10.0 mi East 5.8 mph - N/A   Clear
8:58 AM 81.5 °F 88.0 °F 75.6 °F 82% 30.16 in 10.0 mi East 9.2 mph - N/A   Clear
9:58 AM 83.3 °F 91.4 °F 75.9 °F 78% 30.17 in 10.0 mi East 10.4 mph 17.3 mph 0.01 in   Clear
10:58 AM 84.6 °F 93.2 °F 75.4 °F 74% 30.18 in 10.0 mi East 8.1 mph - N/A   Clear
11:34 AM 84.2 °F 92.3 °F 75.2 °F 74% 30.18 in 10.0 mi East 8.1 mph - N/A   Light Drizzle
11:44 AM 82.4 °F 89.5 °F 75.2 °F 79% 30.18 in 10.0 mi East 5.8 mph - N/A   Clear
11:58 AM 83.5 °F 92.2 °F 76.5 °F 79% 30.18 in 10.0 mi East 10.4 mph - 0.00 in   Clear
12:58 PM 86.0 °F 96.4 °F 76.5 °F 73% 30.18 in 10.0 mi East 12.7 mph 18.4 mph N/A   Clear
1:58 PM 86.7 °F 98.3 °F 77.0 °F 73% 30.18 in 10.0 mi East 9.2 mph 17.3 mph N/A   Partly Cloudy
2:58 PM 85.8 °F 93.8 °F 74.3 °F 68% 30.17 in 10.0 mi ESE 13.8 mph 25.3 mph N/A   Clear
3:58 PM 85.3 °F 94.2 °F 75.4 °F 72% 30.16 in 10.0 mi ESE 9.2 mph - N/A   Clear
4:15 PM 82.4 °F 89.5 °F 75.2 °F 79% 30.15 in 5.0 mi ESE 13.8 mph 25.3 mph N/A Rain Light Rain
4:20 PM 78.8 °F - 73.4 °F 83% 30.15 in 1.8 mi ESE 8.1 mph 24.2 mph N/A Rain Heavy Rain
4:25 PM 77.0 °F - 73.4 °F 89% 30.15 in 2.5 mi ESE 4.6 mph 19.6 mph N/A Rain Light Rain
4:30 PM 77.0 °F - 75.2 °F 94% 30.15 in 10.0 mi SE 5.8 mph - N/A   Light Drizzle
4:33 PM 77.0 °F - 75.2 °F 94% 30.15 in 10.0 mi SE 5.8 mph - N/A   Clear
4:58 PM 78.4 °F - 75.6 °F 91% 30.16 in 10.0 mi ESE 5.8 mph - 0.05 in   Clear
5:58 PM 77.7 °F - 73.6 °F 87% 30.15 in 10.0 mi South 6.9 mph 19.6 mph N/A   Partly Cloudy
6:58 PM 77.5 °F - 72.7 °F 85% 30.16 in 10.0 mi East 1.2 mph - N/A   Clear
7:04 PM 77.0 °F - 73.4 °F 89% 30.15 in 10.0 mi East 2.3 mph - N/A Rain Light Rain
7:15 PM 77.0 °F - 73.4 °F 89% 30.15 in 10.0 mi NNE 2.3 mph - N/A   Clear
7:58 PM 75.7 °F - 73.9 °F 94% 30.16 in 10.0 mi North 2.3 mph - 0.00 in   Clear
8:34 PM 75.2 °F - 73.4 °F 94% 30.15 in 10.0 mi NE 4.6 mph - N/A   Light Drizzle
8:49 PM 75.2 °F - 73.4 °F 94% 30.14 in 10.0 mi NE 4.6 mph - N/A   Clear
8:58 PM 74.8 °F - 73.9 °F 97% 30.15 in 10.0 mi NE 3.5 mph - 0.00 in   Clear
9:58 PM 74.1 °F - 73.6 °F 98% 30.16 in 10.0 mi NE 3.5 mph - N/A   Clear
10:58 PM 73.4 °F - 73.0 °F 99% 30.18 in 10.0 mi NE 2.3 mph - N/A   Clear
11:08 PM 73.4 °F - 73.4 °F 100% 30.17 in 9.0 mi NE 3.5 mph - N/A   Clear
11:53 PM 73.4 °F - 73.4 °F 100% 30.17 in 10.0 mi NNE 3.5 mph - N/A Thunderstorm Thunderstorm
11:58 PM 73.8 °F - 73.4 °F 99% 30.18 in 10.0 mi NE 3.5 mph - N/A Thunderstorm Thunderstorm